User: anonymous   Login
Location: Unspecified
(0.0000°N, 0.0000°E)
Time: 22:48:43
(UTC+00:00)
Language:

Quakesat - Orbit

View from above orbital plane
View from above orbital plane
View from above satellite
View from above satellite

Ground track
Ground track

The orbit data is extracted from the following two-line orbital elements,

1 27845U 03031F   17113.91204839 +.00000156 +00000-0 +90107-4 0  9995
2 27845 098.6960 124.7760 0009304 159.6323 200.5227 14.22012613716451
Epoch (UTC): 23 April 2017 21:53:20
Eccentricity: 0.0009304
inclination: 98.6960°
perigee height: 812 km
apogee height: 825 km
right ascension of ascending node: 124.7760°
argument of perigee: 159.6323°
revolutions per day: 14.22012613
mean anomaly at epoch: 200.5227°
orbit number at epoch: 71645

The dashed part of the orbit path shows where the satellite is in the earth's shadow,  

DLR